Location: Lane
(33.5226°N, 79.8788°W)
Time: 18:53:05
(UTC+00:00)

Courier 1B Rocket - Pass Details

Date: 12 October 2022
Orbit: 920 x 1202 km, 28.3° (Epoch: 01 December)

Event Time Altitude Azimuth Distance (km) Brightness Sun altitude
Rises 17:22:55 0° 202° (SSW) 4,078 8.9 48.7°
Reaches altitude 10° 17:27:26 10° 179° (S) 3,122 8.6 48.6°
Maximum altitude 17:31:11 14° 150° (SSE) 2,810 8.1 48.5°
Drops below altitude 10° 17:34:53 10° 120° (ESE) 3,098 7.9 48.3°
Sets 17:39:19 0° 98° (E) 4,026 8.2 48.1°
